Regional Weather Roundup
Issued by NWS

Home | Current Version | Previous Version | Text Only | Print | Product List | Glossary Off
Versions: 1 2 3 4 5 6 7 8 9 10 11 12 13 14 15 16 17 18 19 20 21 22 23 24 25 26 27 28 29 30 31 32 33 34 35 36 37 38 39 40 41 42 43 44 45 46 47 48 49 50

000
ASUS43 KMPX 200001
RWRMN
WEATHER ROUNDUP FOR MINNESOTA
NATIONAL WEATHER SERVICE TWIN CITIES/CHANHASSEN MN
700 PM CDT TUE SEP 19 2017


NOTE: "FAIR" INDICATES FEW OR NO CLOUDS BELOW 12,000 FEET WITH NO
SIGNIFICANT WEATHER AND/OR OBSTRUCTIONS TO VISIBILITY. N/A MEANS
CURRENT SKY AND/OR WEATHER CONDITIONS ARE NOT AVAILABLE.

MNZ060>063-068>070-200100-
   Twin Cities Metro

CITY           SKY/WX    TMP DP  RH WIND       PRES   REMARKS
TWIN CITIES    CLOUDY    76  63  64 SE16G23   29.69F
6HR MIN TEMP:  75; 6HR MAX TEMP:  80;

ST PAUL        CLOUDY    74  63  68 SE13      29.71F
CRYSTAL        CLOUDY    76  59  55 SE13G21   29.67F
BLAINE         MOCLDY    75  63  64 SE9       29.70F
LAKEVILLE      CLOUDY    73  63  68 SE10      29.70S
EDEN PRAIRIE   CLOUDY    76  63  64 SE15      29.67F
6HR MIN TEMP:  75; 6HR MAX TEMP:  80;

SOUTH ST PAUL  CLOUDY    75  61  60 SE6       29.71S
LAKE ELMO      FAIR      73  64  73 SE9       29.73F
$$
MNZ001>005-007-008-013>017-022>024-027-028-200100-
   Northwest Minnesota

CITY           SKY/WX    TMP DP  RH WIND       PRES   REMARKS
BEMIDJI        CLOUDY    68  60  75 SE17G25   29.64S
HALLOCK        LGT RAIN  66  64  94 SE26G32   29.47F
ROSEAU         CLOUDY    70  61  73 SE17G23   29.60F
WARROAD        CLOUDY    66  63  88 SE14      29.63F
THIEF RVR FALL CLOUDY    68  61  77 E17       29.55F
CROOKSTON      CLOUDY    72  63  73 SE10      29.52F THUNDER
FOSSTON        CLOUDY    66  59  77 SE15G26   29.54F
DETROIT LAKES  CLOUDY    70  61  73 SE25G33   29.52F
MOORHEAD       TSTM      73  63  68 SE21G28   29.44R
PARK RAPIDS    CLOUDY    71  63  75 E13G24    29.61F
MAHNOMEN       FAIR      70  62  76 SE21G31   29.49F
$$
MNZ006-009>011-018-025>026-200100-
   North Central Minnesota

CITY           SKY/WX    TMP DP  RH WIND       PRES   REMARKS
BAUDETTE       CLOUDY    66  60  81 SE10      29.66F
FLAG ISLAND    CLOUDY    66  57  72 SE9       29.65F
INTL FALLS     CLOUDY    67  58  72 SE13      29.72F
6HR MIN TEMP:  64; 6HR MAX TEMP:  72;

WASKISH        CLOUDY    66  61  82 E9        29.65F
BIG FORK       CLOUDY    66  61  82 SE7       29.71F
LONGVILLE      CLOUDY    68  63  83 SE8       29.67F
GRAND RAPIDS   CLOUDY    67  61  81 SE10G17   29.73F
CRANE LAKE     CLOUDY    64  61  88 SE5       29.80S
ORR            PTCLDY    66  57  72 SE7       29.74F
COOK           PTCLDY    66  59  77 SE6       29.78F
WALKER         CLOUDY    67  61  79 SE10G18   29.65F
$$
MNZ012-019>021-037-200100-
   Northeast Minnesota

CITY           SKY/WX    TMP DP  RH WIND       PRES   REMARKS
DULUTH         CLOUDY    60  56  86 E13       29.81F
6HR MIN TEMP:  60; 6HR MAX TEMP:  68;

ELY            CLOUDY    63  52  67 E7        29.84R
HIBBING        CLOUDY    64  58  80 SE13      29.77F
EVELETH        CLOUDY    63  57  82 E6        29.81F
DULUTH HARBOR  CLOUDY    61  59  94 NE21      29.81S
$$
MNZ029>031-032-039>041-046>048-054>057-064-200100-
   West Central Minnesota

CITY           SKY/WX    TMP DP  RH WIND       PRES   REMARKS
FERGUS FALLS   CLOUDY    73  64  73 SE17G33   29.49F
WHEATON        CLOUDY    75  64  69 SE21G28   29.51R
MORRIS         CLOUDY    75  66  73 SE21G32   29.53R
ALEXANDRIA     CLOUDY    72  64  76 SE20G28   29.59F
ELBOW LAKE     FAIR      72  65  80 E16G30    29.52F
WADENA         CLOUDY    70  63  78 SE16G24   29.59F
GLENWOOD       CLOUDY    72  64  78 SE16G23   29.59F
APPLETON       CLOUDY    77  64  65 SE17G24   29.52F
BENSON         CLOUDY    75  64  69 S18G24    29.57R
ORTONVILLE     CLOUDY    75  66  73 N12G21    29.52R
MADISON        CLOUDY    79  70  73 SE15G21   29.53R
WILLMAR        FAIR      75  66  73 SE17G24   29.61R
$$
MNZ033>034-036-042>043-049>051-058-059-200100-
   Central Minnesota

CITY           SKY/WX    TMP DP  RH WIND       PRES   REMARKS
ST CLOUD       CLOUDY    74  63  68 SE14G23   29.66F
6HR MIN TEMP:  74; 6HR MAX TEMP:  78;

SAUK CENTRE    FAIR      72  64  75 SE13G21   29.61F
PAYNESVILLE    CLOUDY    74  65  73 SE16G24   29.62F
AITKIN         MOCLDY    70  61  73 E12       29.69F
PINE RIVER     CLOUDY    66  61  82 SE13G21   29.69F
BRAINERD       CLOUDY    70  62  76 SE8G17    29.67F
STAPLES        PTCLDY    70  61  73 SE12G20   29.63F
LONG PRAIRIE   FAIR      70  63  78 E16G22    29.62F
LITTLE FALLS   CLOUDY    72  55  56 SE10G25   29.65F
LITCHFIELD     CLOUDY    75  66  73 SE16      29.64R
BUFFALO        CLOUDY    74  62  64 E12G17    29.67F
MAPLE LAKE     CLOUDY    75  65  70 SE10G17   29.66F
HUTCHINSON     CLOUDY    75  66  75 SE14      29.65R
$$
MNZ037-044-045-052-053-200100-
   East Central Minnesota

CITY           SKY/WX    TMP DP  RH WIND       PRES   REMARKS
PRINCETON      CLOUDY    75  63  64 E13G18    29.68F
MORA           CLOUDY    70  61  73 SE8       29.73F
RUSH CITY      CLOUDY    72  62  71 SE7       29.74S
MOOSE LAKE     CLOUDY    63  57  82 E6        29.74F
HINCKLEY       CLOUDY    72  63  73 E7        29.74F
CLOQUET        CLOUDY    61  54  77 E10       29.79F
MCGREGOR       CLOUDY    66  61  82 E12G17    29.73F
$$
MNZ071>073-080-081-089-090-097-098-200100-
   Southwest Minnesota

CITY           SKY/WX    TMP DP  RH WIND       PRES   REMARKS
MONTEVIDEO     CLOUDY    75  66  73 S17       29.55S
GRANITE FALLS  CLOUDY    79  68  69 SE15G24   29.57S
CANBY          CLOUDY    76  68  74 SE14      29.54R
MARSHALL       CLOUDY    77  68  73 SE20      29.55R
REDWOOD FALLS  CLOUDY    78  64  61 SE23G33   29.58S
OLIVIA         CLOUDY    73  64  73 SE15G24   29.60R
PIPESTONE      CLOUDY    75  66  73 S15G22    29.57R
WINDOM         CLOUDY    77  64  65 SE20G26   29.60F
WORTHINGTON    CLOUDY    76  67  73 SE15G25   29.60S
JACKSON        PTCLDY    75  64  69 SE20G26   29.63F
TRACY          CLOUDY    77  69  78 SE15G28   29.57S
SLAYTON        CLOUDY    76  67  75 SE16G23   29.58F
$$
MNZ065>067-074>077-082>085-091>093-200100-
   South Central Minnesota

CITY           SKY/WX    TMP DP  RH WIND       PRES   REMARKS
MANKATO        CLOUDY    75  64  68 SE15      29.65F
NEW ULM        CLOUDY    75  64  69 SE20G25   29.62S
ST JAMES       CLOUDY    75  64  69 SE18      29.63S
FAIRMONT       CLOUDY    76  66  71 SE17G29   29.64F
GLENCOE        CLOUDY    76  67  73 SE13G21   29.65S
FARIBAULT      CLOUDY    75  63  64 SE13G20   29.70F
OWATONNA       CLOUDY    75  63  64 SE16G24   29.70F
WASECA         CLOUDY    72  61  68 SE13G20   29.70F
ALBERT LEA     CLEAR     77  64  65 SE16G23   29.71S
$$
MNZ078>079-086>088-094>096-200100-
   Southeast Minnesota

CITY           SKY/WX    TMP DP  RH WIND       PRES   REMARKS
ROCHESTER      CLEAR     72  62  71 SE9       29.78R
6HR MIN TEMP:  72; 6HR MAX TEMP:  78;

RED WING       CLOUDY    75  61  60 SE10      29.73S
STANTON        CLOUDY    75  63  64 SE10G18   29.69F
DODGE CENTER   CLOUDY    73  59  60 SE12      29.75F
WINONA         CLEAR     73  63  68 SE8       29.77F
AUSTIN         CLEAR     73  61  64 SE13      29.73F
PRESTON        CLEAR     73  60  65 SE12      29.79S
$$
ABBREVIATIONS USED IN REMARKS
   TC - TEMPERATURES IN CELSIUS
  WCI - WIND CHILL INDEX
   HX - HEAT INDEX
  VSB - VISIBILITY
$$




USA.gov is the U.S. government's official web portal to all federal, state and local government web resources and services.